Wind_Speed
11 11 11 12 12 12 12 12 11 11 10 10 11 11 12 13 13 14 15 15 16 17 17 17 16 16 16 15 14 14 13 14 13 13 13 15 17 18 20 21 21 21 21
11 11 12 12 12 12 12 12 11 10 10 10 10 10 11 12 13 13 15 16 16 16 17 17 17 17 16 16 15 14 14 16 16 15 15 16 18 19 20 20 20 21 21
11 11 12 13 13 13 13 12 11 10 9 9 9 9 10 11 12 13 14 15 16 17 17 17 17 17 17 16 16 14 15 17 17 16 17 18 19 19 19 20 19 20 21
11 12 12 13 13 13 13 12 11 10 10 9 9 9 9 9 11 12 13 14 15 16 17 17 18 18 17 17 17 16 16 16 17 18 18 19 19 20 19 19 20 20 21
12 12 12 13 14 13 13 12 11 10 10 9 8 8 8 8 9 10 11 13 14 14 16 17 18 18 18 17 17 16 16 16 17 18 19 19 20 21 20 20 19 21 20
11 12 12 13 14 14 13 12 11 11 10 8 7 7 7 7 8 9 10 12 14 15 16 17 18 18 19 18 17 16 17 17 17 19 20 20 20 22 21 21 21 21 21
11 12 12 13 14 14 13 12 11 11 10 9 8 7 6 7 7 9 10 11 13 14 16 17 18 18 18 19 18 18 17 18 18 18 19 20 21 22 22 22 21 21 21
11 12 13 13 14 14 13 12 12 11 10 9 8 7 6 6 6 7 9 10 12 14 16 17 18 18 18 18 19 19 18 18 18 18 17 18 21 23 23 22 22 22 21
11 12 12 13 14 14 13 12 12 11 10 9 8 7 6 5 5 6 7 9 10 13 15 17 18 18 19 19 19 19 19 19 19 19 18 18 20 22 22 22 21 21 21
11 11 12 12 13 13 13 13 13 12 11 10 9 7 6 5 5 5 6 8 10 11 14 16 18 18 18 19 19 19 19 19 19 19 19 19 20 20 21 21 21 21 22
10 11 12 12 13 13 13 13 13 13 12 11 10 8 6 4 4 4 5 7 10 11 12 15 16 18 18 18 19 20 20 20 20 20 20 20 20 21 21 21 21 21 22
10 11 12 12 13 13 13 13 13 14 13 12 10 8 6 5 4 4 5 6 8 10 12 14 16 17 18 19 19 20 20 21 21 21 21 21 21 22 22 21 21 21 21
10 10 11 12 12 13 13 13 13 14 13 12 11 9 7 5 5 4 4 5 7 9 11 13 15 16 17 18 19 20 20 21 22 22 22 22 22 23 23 23 22 22 22
10 10 11 11 12 12 13 13 13 13 14 13 11 9 7 6 5 4 4 5 6 8 10 12 14 16 17 18 19 20 20 21 22 22 22 23 23 23 24 24 24 24 23
10 10 11 12 12 12 12 12 12 13 13 13 12 10 8 7 5 4 4 4 5 7 8 11 13 14 17 19 19 20 21 21 22 22 23 23 24 24 24 25 25 25 24
10 11 11 12 12 12 12 12 12 13 13 12 12 10 9 8 6 5 4 4 5 6 8 10 12 14 16 18 19 20 20 22 22 22 22 23 24 25 25 26 26 26 26
10 11 11 12 12 12 12 12 12 12 13 12 12 11 10 9 7 6 5 5 5 6 8 10 12 14 16 17 18 20 21 23 24 24 24 24 24 25 26 27 27 27 27
10 11 11 12 12 12 12 12 12 12 13 13 12 12 11 10 8 7 7 6 6 7 8 10 12 13 15 17 18 20 22 23 24 26 26 26 26 27 27 27 28 28 29
11 11 12 12 12 12 12 12 12 13 13 13 13 12 12 11 9 9 8 8 8 9 9 10 11 13 14 16 18 19 22 24 25 26 27 27 27 27 28 29 29 29 30
12 13 13 13 13 13 13 13 13 14 14 14 14 14 13 13 12 11 11 11 11 11 12 12 13 14 15 16 18 20 21 24 25 26 27 28 28 29 29 29 30 30 30
14 14 14 14 14 14 15 15 15 15 16 16 16 16 15 15 15 14 14 14 14 14 14 15 15 16 18 19 20 21 22 24 25 27 28 29 29 30 30 30 31 31 32
15 16 16 16 16 16 17 17 17 17 18 18 18 18 18 18 18 18 17 17 17 17 17 18 18 19 20 21 22 23 24 25 26 27 29 30 30 30 31 32 32 32 33
18 18 18 19 19 19 19 19 20 20 21 21 21 21 21 21 21 21 21 21 21 21 21 21 22 22 23 24 24 25 26 26 27 28 30 30 31 32 33 33 34 34 34
20 20 21 21 22 22 22 22 23 23 24 24 24 25 25 25 25 25 25 25 25 25 25 25 25 26 26 27 27 28 29 29 29 29 31 31 32 33 34 34 34 34 35
23 23 24 25 25 25 25 26 26 27 27 28 28 29 29 29 29 30 30 29 28 28 28 28 28 29 29 30 30 31 31 32 32 32 32 33 33 33 34 35 35 36 36
26 26 27 28 28 28 29 30 30 30 31 31 32 32 33 33 34 34 34 33 32 32 32 32 32 32 33 33 33 33 34 35 35 34 34 35 35 35 35 36 36 37 37
Wind_Direction
342 341 341 342 339 335 332 327 320 312 301 290 278 271 264 258 253 245 241 236 231 229 229 225 223 223 222 222 222 218 213 210 202 198 192 187 183 181 184 186 188 188 188
343 342 343 344 343 341 337 332 325 316 308 298 286 276 268 259 254 246 241 235 231 229 228 225 223 224 221 220 221 218 213 207 201 197 192 186 185 186 187 187 189 189 189
347 345 346 346 345 344 341 337 330 322 314 307 295 283 272 261 252 245 239 235 232 230 227 222 221 222 219 218 219 214 207 202 197 196 193 191 188 188 188 189 191 191 190
348 347 347 348 348 346 343 340 336 329 321 312 302 290 278 265 254 245 237 233 231 229 225 220 219 219 217 217 217 213 208 207 200 198 195 195 194 192 190 191 194 192 191
351 351 349 351 352 350 347 343 338 333 325 316 306 295 281 267 253 244 236 230 229 227 225 220 218 218 216 216 216 211 208 206 204 202 199 198 197 195 194 194 196 195 193
352 353 353 354 354 354 351 348 343 338 333 325 314 300 285 270 255 243 237 231 230 228 224 220 217 216 215 216 215 211 206 207 206 204 201 201 202 201 199 200 200 199 199
353 355 356 356 355 355 355 354 350 346 342 336 324 310 292 274 258 248 241 235 228 225 221 217 215 214 213 214 214 213 209 208 208 207 206 205 205 204 203 205 204 203 203
353 354 355 357 358 357 358 357 355 352 347 341 334 323 304 284 264 253 244 237 225 220 218 214 213 213 212 213 213 213 212 210 211 211 211 211 207 205 205 206 208 206 208
351 354 357 359 360 359 360 360 358 356 351 346 339 329 318 296 274 259 248 237 224 218 216 214 213 212 212 212 212 213 214 213 211 212 210 207 203 205 206 209 210 211 212
353 357 359 -0 1 1 1 2 360 358 355 349 343 334 323 307 288 271 251 236 226 218 217 215 213 213 212 212 211 212 214 215 212 212 210 210 208 207 208 209 213 214 216
355 357 360 1 2 1 0 0 1 1 360 354 347 340 330 318 293 272 255 241 230 223 221 216 214 213 212 212 212 212 213 215 214 214 213 213 213 213 214 214 214 217 220
354 356 359 358 358 359 359 0 1 2 1 357 353 348 338 322 307 280 258 244 234 229 226 221 217 215 214 214 213 213 215 215 216 215 216 216 215 215 215 216 218 219 221
352 355 357 355 355 357 358 360 1 2 2 0 359 356 346 334 320 295 264 248 238 231 227 224 220 217 217 217 217 216 216 216 217 217 218 218 218 218 217 218 221 222 225
350 351 353 354 355 356 357 358 360 2 3 3 2 360 355 344 331 309 276 250 238 234 230 227 223 221 219 220 220 219 219 219 219 219 220 221 221 220 220 221 223 225 227
347 348 348 351 353 355 356 357 357 359 2 3 3 1 356 351 344 321 292 265 244 235 234 231 228 224 223 224 222 221 220 221 220 220 221 223 224 222 222 224 226 228 230
338 343 346 346 347 349 351 353 355 357 359 1 3 2 358 351 342 331 311 275 250 240 237 234 231 229 229 226 226 226 224 223 222 222 223 225 226 226 225 226 228 230 232
331 334 338 342 343 343 345 348 350 352 354 355 356 356 354 349 338 330 314 290 264 253 248 242 237 235 233 232 232 229 228 227 226 226 227 228 228 228 228 229 231 232 234
324 326 329 333 337 338 338 341 343 344 346 347 347 347 347 344 334 324 313 296 279 267 259 248 243 240 239 239 236 233 232 232 231 230 230 232 232 231 232 232 234 235 236
317 319 321 324 328 331 331 333 335 336 338 339 340 338 337 336 331 321 313 301 288 277 268 259 251 247 244 244 242 239 237 235 234 235 234 234 234 235 236 236 237 237 238
313 313 314 316 318 322 325 325 326 327 328 330 331 330 327 326 322 315 307 301 293 284 275 267 260 254 252 250 247 243 240 239 238 239 238 237 237 237 237 238 239 239 239
309 309 309 310 311 315 319 320 319 320 320 321 321 321 319 316 314 309 303 298 293 285 277 271 265 260 256 254 252 249 245 242 241 242 241 240 240 239 238 238 239 240 242
305 305 305 305 306 307 311 313 313 314 314 314 314 314 313 311 308 306 301 296 291 284 278 274 269 265 262 259 255 251 249 246 244 244 243 242 241 240 240 240 240 241 242
303 303 303 303 302 302 304 307 307 308 308 308 308 307 306 305 303 301 299 296 291 285 280 275 271 267 265 263 260 256 253 251 249 246 246 245 243 242 241 242 242 242 243
300 300 300 299 298 298 299 301 302 302 303 304 303 303 302 301 300 298 295 293 290 286 281 276 272 269 266 265 262 259 256 255 253 250 248 247 245 244 244 243 242 243 244
297 296 297 297 296 296 297 298 298 299 299 300 300 299 299 298 297 295 293 290 288 285 281 277 273 269 266 264 263 261 258 257 256 254 251 249 247 244 244 244 243 244 245
295 296 296 296 294 294 295 296 296 297 297 298 298 297 297 296 295 293 291 288 286 284 281 277 274 271 268 264 262 261 260 258 256 255 253 251 249 248 246 246 246 246 246
Height
5855 5853 5851 5848 5846 5843 5841 5839 5837 5835 5834 5833 5833 5833 5833 5834 5835 5836 5838 5839 5841 5843 5846 5848 5850 5852 5855 5857 5858 5860 5861 5862 5864 5865 5866 5868 5870 5873 5876 5880 5884 5887 5891
5854 5851 5849 5846 5844 5841 5839 5837 5835 5833 5832 5831 5830 5830 5830 5831 5832 5833 5835 5836 5838 5840 5843 5845 5847 5850 5852 5854 5856 5857 5857 5859 5862 5864 5866 5869 5871 5874 5877 5880 5884 5887 5890
5852 5850 5847 5845 5842 5839 5837 5835 5832 5831 5829 5828 5828 5827 5827 5828 5829 5830 5831 5833 5835 5837 5839 5842 5844 5847 5849 5852 5853 5854 5855 5858 5861 5864 5866 5869 5871 5874 5877 5880 5883 5885 5889
5851 5848 5846 5843 5841 5838 5835 5833 5831 5829 5827 5826 5825 5825 5825 5825 5826 5827 5828 5830 5832 5834 5836 5839 5842 5844 5846 5849 5851 5853 5855 5857 5860 5863 5865 5868 5871 5874 5877 5880 5882 5885 5888
5850 5847 5844 5842 5839 5836 5834 5831 5829 5827 5825 5824 5823 5823 5822 5822 5823 5824 5825 5827 5829 5831 5833 5836 5838 5841 5844 5846 5849 5851 5853 5856 5859 5862 5864 5867 5870 5873 5876 5879 5882 5884 5887
5849 5846 5843 5841 5838 5835 5832 5830 5828 5826 5824 5822 5821 5820 5820 5820 5821 5821 5823 5824 5826 5828 5830 5833 5835 5838 5841 5844 5847 5849 5852 5854 5857 5860 5862 5865 5868 5871 5875 5878 5881 5883 5886
5848 5845 5843 5840 5837 5834 5831 5829 5827 5824 5823 5821 5820 5819 5818 5818 5818 5819 5820 5821 5823 5825 5827 5829 5832 5835 5838 5841 5844 5847 5849 5852 5855 5858 5860 5862 5865 5869 5873 5876 5879 5881 5884
5847 5845 5842 5839 5836 5833 5831 5828 5826 5824 5822 5820 5818 5817 5817 5817 5816 5817 5817 5819 5820 5822 5824 5827 5829 5832 5835 5839 5842 5845 5847 5850 5853 5855 5858 5859 5861 5865 5870 5874 5877 5880 5882
5846 5844 5841 5839 5836 5833 5830 5828 5825 5823 5821 5819 5817 5816 5815 5815 5815 5815 5815 5816 5817 5819 5821 5824 5827 5830 5833 5836 5839 5842 5845 5848 5850 5853 5855 5857 5859 5863 5868 5871 5875 5877 5880
5846 5843 5841 5838 5836 5833 5830 5828 5825 5822 5820 5818 5816 5815 5814 5813 5813 5813 5814 5814 5816 5817 5819 5822 5825 5827 5830 5833 5836 5840 5843 5846 5848 5851 5853 5856 5858 5862 5865 5869 5872 5875 5878
5845 5843 5840 5838 5835 5833 5830 5828 5825 5822 5820 5817 5815 5813 5812 5812 5811 5811 5812 5813 5814 5815 5817 5820 5822 5825 5828 5831 5834 5837 5840 5843 5846 5849 5851 5854 5857 5860 5863 5866 5869 5872 5874
5844 5842 5840 5837 5835 5833 5830 5827 5825 5822 5819 5817 5814 5813 5811 5811 5810 5810 5810 5811 5812 5814 5815 5817 5820 5823 5825 5828 5831 5834 5837 5840 5843 5846 5849 5851 5854 5857 5860 5863 5866 5869 5871
5844 5842 5839 5837 5835 5832 5830 5827 5824 5822 5819 5816 5814 5812 5811 5810 5809 5809 5809 5809 5810 5812 5813 5815 5817 5820 5823 5826 5828 5831 5834 5837 5840 5843 5846 5848 5851 5854 5857 5860 5863 5865 5868
5843 5841 5839 5837 5834 5832 5829 5827 5824 5822 5819 5817 5814 5812 5811 5810 5809 5808 5808 5808 5809 5810 5811 5813 5815 5817 5820 5822 5825 5828 5831 5833 5836 5839 5842 5845 5848 5850 5853 5856 5859 5862 5864
5842 5840 5838 5836 5834 5831 5829 5826 5824 5821 5819 5817 5814 5812 5811 5809 5808 5808 5807 5807 5808 5809 5810 5811 5812 5814 5817 5819 5822 5824 5827 5830 5833 5835 5838 5841 5844 5846 5849 5852 5855 5857 5860
5841 5839 5837 5835 5833 5831 5828 5826 5824 5821 5819 5817 5815 5813 5811 5809 5808 5807 5807 5807 5807 5807 5808 5809 5810 5812 5814 5816 5818 5821 5823 5826 5829 5831 5834 5837 5839 5842 5845 5847 5850 5853 5855
5839 5838 5836 5834 5832 5830 5828 5825 5823 5821 5819 5817 5815 5813 5811 5809 5808 5807 5806 5805 5805 5806 5806 5807 5808 5809 5811 5812 5814 5817 5819 5822 5824 5827 5830 5832 5835 5837 5840 5842 5845 5847 5850
5838 5836 5834 5833 5831 5829 5827 5825 5822 5820 5818 5816 5814 5812 5810 5808 5807 5806 5805 5804 5804 5804 5804 5805 5805 5806 5807 5809 5810 5812 5815 5817 5819 5822 5824 5827 5829 5832 5834 5837 5839 5842 5844
5835 5834 5832 5831 5829 5827 5825 5823 5821 5819 5817 5815 5813 5811 5809 5808 5806 5805 5804 5803 5802 5802 5802 5802 5803 5803 5804 5805 5807 5808 5810 5812 5814 5816 5819 5821 5823 5826 5828 5831 5833 5835 5838
5833 5831 5830 5828 5827 5825 5823 5821 5820 5818 5816 5814 5812 5810 5808 5806 5804 5803 5802 5801 5800 5799 5799 5799 5799 5800 5800 5801 5802 5803 5805 5806 5808 5810 5812 5815 5817 5819 5822 5824 5826 5828 5831
5830 5828 5827 5825 5824 5822 5820 5819 5817 5815 5813 5811 5809 5807 5805 5804 5802 5800 5799 5798 5797 5796 5795 5795 5795 5795 5796 5796 5797 5798 5799 5800 5802 5804 5806 5808 5810 5812 5814 5817 5819 5821 5823
5826 5824 5823 5821 5820 5818 5817 5815 5813 5812 5810 5808 5806 5804 5802 5800 5798 5796 5795 5793 5792 5791 5791 5790 5790 5790 5790 5790 5791 5792 5793 5794 5796 5797 5798 5800 5802 5804 5806 5809 5811 5813 5815
5822 5820 5818 5817 5815 5814 5812 5810 5809 5807 5805 5803 5802 5800 5798 5795 5793 5792 5790 5788 5787 5785 5785 5784 5784 5783 5783 5783 5784 5784 5785 5786 5788 5789 5790 5792 5794 5796 5798 5800 5802 5804 5806
5817 5815 5813 5812 5810 5808 5807 5805 5803 5801 5800 5798 5796 5793 5791 5789 5787 5785 5783 5782 5780 5778 5777 5776 5776 5776 5775 5775 5775 5776 5777 5778 5779 5780 5782 5783 5785 5787 5789 5791 5793 5795 5797
5811 5809 5807 5805 5803 5802 5800 5798 5796 5795 5793 5790 5788 5786 5783 5781 5779 5776 5774 5773 5771 5769 5767 5766 5766 5766 5766 5766 5766 5767 5767 5769 5770 5771 5772 5774 5776 5777 5779 5781 5783 5785 5787
5804 5802 5800 5798 5796 5794 5792 5790 5788 5786 5784 5782 5780 5777 5774 5771 5769 5766 5763 5762 5760 5759 5757 5756 5755 5755 5755 5755 5755 5756 5757 5758 5759 5761 5762 5763 5765 5767 5769 5771 5773 5775 5777